Time,TemperatureF,DewpointF,PressureIn,WindDirection,WindDirectionDegrees,WindSpeedMPH,WindSpeedGustMPH,Humidity,HourlyPrecipIn,Conditions,Clouds,dailyrainin,SoftwareType,DateUTC
2013-05-16 00:01:00,51.0,50.2,29.30,West,270,6.0,7.0,97,0.00,,,0.00,Weather View 32 v70,2013-05-16 04:01:00,
2013-05-16 00:02:00,51.0,50.2,29.30,West,270,3.0,7.0,97,0.00,,,0.00,Weather View 32 v70,2013-05-16 04:02:00,
2013-05-16 00:07:00,51.0,50.2,29.30,West,270,3.0,7.0,97,0.00,,,0.00,Weather View 32 v70,2013-05-16 04:07:00,
2013-05-16 00:12:00,51.0,50.2,29.29,WSW,247,6.0,7.0,97,0.00,,,0.00,Weather View 32 v70,2013-05-16 04:12:00,
2013-05-16 00:17:00,51.0,50.2,29.29,West,270,4.0,7.0,97,0.00,,,0.00,Weather View 32 v70,2013-05-16 04:17:00,
2013-05-16 00:22:00,51.0,50.2,29.29,West,270,6.0,7.0,97,0.00,,,0.00,Weather View 32 v70,2013-05-16 04:22:00,
2013-05-16 00:27:00,51.0,50.2,29.29,WSW,247,5.0,7.0,97,0.00,,,0.00,Weather View 32 v70,2013-05-16 04:27:00,
2013-05-16 00:32:00,51.0,50.2,29.29,West,270,4.0,7.0,97,0.00,,,0.00,Weather View 32 v70,2013-05-16 04:32:00,
2013-05-16 00:37:00,51.0,50.2,29.29,West,270,4.0,7.0,97,0.00,,,0.00,Weather View 32 v70,2013-05-16 04:37:00,
2013-05-16 00:42:00,52.0,51.2,29.27,West,270,1.0,7.0,97,0.00,,,0.00,Weather View 32 v70,2013-05-16 04:42:00,
2013-05-16 00:47:00,51.0,50.2,29.27,West,270,4.0,7.0,97,0.00,,,0.00,Weather View 32 v70,2013-05-16 04:47:00,
2013-05-16 00:52:00,51.0,50.2,29.28,West,270,1.0,7.0,97,0.00,,,0.00,Weather View 32 v70,2013-05-16 04:52:00,
2013-05-16 00:57:00,51.0,50.2,29.28,West,270,2.0,7.0,97,0.00,,,0.00,Weather View 32 v70,2013-05-16 04:57:00,
2013-05-16 01:02:00,51.0,50.2,29.28,West,270,2.0,7.0,97,0.00,,,0.00,Weather View 32 v70,2013-05-16 05:02:00,
2013-05-16 01:07:00,51.0,50.2,29.28,West,270,2.0,7.0,97,0.00,,,0.00,Weather View 32 v70,2013-05-16 05:07:00,
2013-05-16 01:12:00,51.0,50.2,29.28,WSW,247,2.0,7.0,97,0.00,,,0.00,Weather View 32 v70,2013-05-16 05:12:00,
2013-05-16 01:17:00,51.0,50.2,29.28,West,270,2.0,7.0,97,0.00,,,0.00,Weather View 32 v70,2013-05-16 05:17:00,
2013-05-16 01:22:00,50.0,49.2,29.28,West,270,3.0,7.0,97,0.00,,,0.00,Weather View 32 v70,2013-05-16 05:22:00,
2013-05-16 01:27:00,50.0,49.2,29.28,West,270,5.0,7.0,97,0.00,,,0.00,Weather View 32 v70,2013-05-16 05:27:00,
2013-05-16 01:32:00,51.0,50.2,29.27,SW,225,6.0,7.0,97,0.00,,,0.00,Weather View 32 v70,2013-05-16 05:32:00,
2013-05-16 01:37:00,51.0,50.2,29.27,West,270,3.0,9.0,97,0.00,,,0.00,Weather View 32 v70,2013-05-16 05:37:00,
2013-05-16 01:42:00,52.0,51.2,29.27,West,270,7.0,9.0,97,0.00,,,0.00,Weather View 32 v70,2013-05-16 05:42:00,
2013-05-16 01:47:00,52.0,51.2,29.27,West,270,7.0,9.0,97,0.00,,,0.00,Weather View 32 v70,2013-05-16 05:47:00,
2013-05-16 01:52:00,53.0,52.2,29.26,West,270,4.0,9.0,97,0.00,,,0.00,Weather View 32 v70,2013-05-16 05:52:00,
2013-05-16 01:57:00,53.0,52.2,29.26,West,270,3.0,9.0,97,0.00,,,0.00,Weather View 32 v70,2013-05-16 05:57:00,
2013-05-16 02:02:00,53.0,52.2,29.26,West,270,6.0,9.0,97,0.00,,,0.00,Weather View 32 v70,2013-05-16 06:02:00,
2013-05-16 02:07:00,53.0,52.2,29.26,West,270,4.0,10.0,97,0.00,,,0.00,Weather View 32 v70,2013-05-16 06:07:00,
2013-05-16 02:12:00,53.0,51.9,29.26,West,270,2.0,10.0,96,0.00,,,0.00,Weather View 32 v70,2013-05-16 06:12:00,
2013-05-16 02:17:00,53.0,51.9,29.26,NW,315,2.0,10.0,96,0.00,,,0.00,Weather View 32 v70,2013-05-16 06:17:00,
2013-05-16 02:22:00,53.0,52.2,29.26,NW,315,5.0,10.0,97,0.00,,,0.00,Weather View 32 v70,2013-05-16 06:22:00,
2013-05-16 02:27:00,53.0,52.2,29.26,West,270,1.0,10.0,97,0.00,,,0.00,Weather View 32 v70,2013-05-16 06:27:00,
2013-05-16 02:32:00,52.0,51.2,29.27,West,270,3.0,10.0,97,0.00,,,0.00,Weather View 32 v70,2013-05-16 06:32:00,
2013-05-16 02:37:00,52.0,51.2,29.27,West,270,2.0,10.0,97,0.00,,,0.00,Weather View 32 v70,2013-05-16 06:37:00,
2013-05-16 02:42:00,52.0,51.2,29.27,NW,315,4.0,10.0,97,0.00,,,0.00,Weather View 32 v70,2013-05-16 06:42:00,
2013-05-16 02:47:00,52.0,51.2,29.27,West,270,2.0,10.0,97,0.00,,,0.00,Weather View 32 v70,2013-05-16 06:47:00,
2013-05-16 02:52:00,52.0,51.2,29.26,West,270,2.0,10.0,97,0.00,,,0.00,Weather View 32 v70,2013-05-16 06:52:00,
2013-05-16 02:57:00,52.0,51.2,29.26,West,270,3.0,10.0,97,0.00,,,0.00,Weather View 32 v70,2013-05-16 06:57:00,
2013-05-16 03:02:00,52.0,51.2,29.26,West,270,5.0,10.0,97,0.00,,,0.00,Weather View 32 v70,2013-05-16 07:02:00,
2013-05-16 03:07:00,52.0,51.2,29.26,West,270,2.0,7.0,97,0.00,,,0.00,Weather View 32 v70,2013-05-16 07:07:00,
2013-05-16 03:12:00,52.0,51.2,29.26,West,270,1.0,7.0,97,0.00,,,0.00,Weather View 32 v70,2013-05-16 07:12:00,
2013-05-16 03:17:00,52.0,51.2,29.26,WSW,247,2.0,7.0,97,0.00,,,0.00,Weather View 32 v70,2013-05-16 07:17:00,
2013-05-16 03:22:00,52.0,51.2,29.26,West,270,3.0,7.0,97,0.00,,,0.00,Weather View 32 v70,2013-05-16 07:22:00,
2013-05-16 03:27:00,52.0,51.2,29.26,West,270,3.0,7.0,97,0.00,,,0.00,Weather View 32 v70,2013-05-16 07:27:00,
2013-05-16 03:32:00,52.0,50.9,29.25,West,270,5.0,7.0,96,0.00,,,0.00,Weather View 32 v70,2013-05-16 07:32:00,
2013-05-16 03:37:00,52.0,50.9,29.25,WNW,292,2.0,7.0,96,0.00,,,0.00,Weather View 32 v70,2013-05-16 07:37:00,
2013-05-16 03:42:00,52.0,50.9,29.25,WSW,247,2.0,7.0,96,0.00,,,0.00,Weather View 32 v70,2013-05-16 07:42:00,
2013-05-16 03:47:00,52.0,50.9,29.25,West,270,5.0,7.0,96,0.00,,,0.00,Weather View 32 v70,2013-05-16 07:47:00,
2013-05-16 03:52:00,52.0,50.9,29.25,West,270,2.0,7.0,96,0.00,,,0.00,Weather View 32 v70,2013-05-16 07:52:00,
2013-05-16 03:57:00,51.0,49.9,29.25,SW,225,0.0,7.0,96,0.00,,,0.00,Weather View 32 v70,2013-05-16 07:57:00,
2013-05-16 04:02:00,51.0,49.9,29.26,WNW,292,1.0,7.0,96,0.00,,,0.00,Weather View 32 v70,2013-05-16 08:02:00,
2013-05-16 04:07:00,51.0,49.6,29.26,West,270,0.0,7.0,95,0.00,,,0.00,Weather View 32 v70,2013-05-16 08:07:00,
2013-05-16 04:12:00,51.0,49.6,29.26,West,270,0.0,7.0,95,0.00,,,0.00,Weather View 32 v70,2013-05-16 08:12:00,
2013-05-16 04:17:00,50.0,49.2,29.26,WSW,247,0.0,7.0,97,0.00,,,0.00,Weather View 32 v70,2013-05-16 08:17:00,
2013-05-16 04:22:00,50.0,49.2,29.27,WSW,247,1.0,7.0,97,0.00,,,0.00,Weather View 32 v70,2013-05-16 08:22:00,
2013-05-16 04:27:00,50.0,49.2,29.27,WSW,247,2.0,7.0,97,0.00,,,0.00,Weather View 32 v70,2013-05-16 08:27:00,
2013-05-16 04:32:00,50.0,49.2,29.27,WSW,247,2.0,7.0,97,0.00,,,0.00,Weather View 32 v70,2013-05-16 08:32:00,
2013-05-16 04:37:00,50.0,49.2,29.27,WSW,247,0.0,6.0,97,0.00,,,0.00,Weather View 32 v70,2013-05-16 08:37:00,
2013-05-16 04:42:00,49.0,48.2,29.27,WSW,247,0.0,6.0,97,0.00,,,0.00,Weather View 32 v70,2013-05-16 08:42:00,
2013-05-16 04:47:00,49.0,48.2,29.27,WSW,247,0.0,6.0,97,0.00,,,0.00,Weather View 32 v70,2013-05-16 08:47:00,
2013-05-16 04:52:00,50.0,48.6,29.27,WSW,247,1.0,6.0,95,0.00,,,0.00,Weather View 32 v70,2013-05-16 08:52:00,
2013-05-16 04:57:00,50.0,48.3,29.27,West,270,2.0,6.0,94,0.00,,,0.00,Weather View 32 v70,2013-05-16 08:57:00,
2013-05-16 05:02:00,50.0,47.8,29.27,NW,315,1.0,4.0,92,0.00,,,0.00,Weather View 32 v70,2013-05-16 09:02:00,
2013-05-16 05:07:00,50.0,47.8,29.27,WNW,292,1.0,5.0,92,0.00,,,0.00,Weather View 32 v70,2013-05-16 09:07:00,
2013-05-16 05:12:00,50.0,47.8,29.27,SW,225,0.0,5.0,92,0.00,,,0.00,Weather View 32 v70,2013-05-16 09:12:00,
2013-05-16 05:17:00,50.0,48.1,29.27,West,270,2.0,5.0,93,0.00,,,0.00,Weather View 32 v70,2013-05-16 09:17:00,
2013-05-16 05:22:00,50.0,48.1,29.27,West,270,1.0,5.0,93,0.00,,,0.00,Weather View 32 v70,2013-05-16 09:22:00,
2013-05-16 05:27:00,50.0,48.1,29.27,West,270,1.0,5.0,93,0.00,,,0.00,Weather View 32 v70,2013-05-16 09:27:00,
2013-05-16 05:32:00,49.0,47.3,29.28,West,270,1.0,5.0,94,0.00,,,0.00,Weather View 32 v70,2013-05-16 09:32:00,
2013-05-16 05:37:00,49.0,47.3,29.28,SW,225,0.0,5.0,94,0.00,,,0.00,Weather View 32 v70,2013-05-16 09:37:00,
2013-05-16 05:42:00,49.0,47.3,29.28,SW,225,0.0,5.0,94,0.00,,,0.00,Weather View 32 v70,2013-05-16 09:42:00,
2013-05-16 05:47:00,48.0,46.6,29.28,SW,225,0.0,5.0,95,0.00,,,0.00,Weather View 32 v70,2013-05-16 09:47:00,
2013-05-16 05:52:00,48.0,46.9,29.29,SW,225,0.0,5.0,96,0.00,,,0.00,Weather View 32 v70,2013-05-16 09:52:00,
2013-05-16 05:57:00,47.0,46.2,29.29,SW,225,0.0,5.0,97,0.00,,,0.00,Weather View 32 v70,2013-05-16 09:57:00,
2013-05-16 06:02:00,47.0,46.2,29.29,SW,225,0.0,5.0,97,0.00,,,0.00,Weather View 32 v70,2013-05-16 10:02:00,
2013-05-16 06:07:00,47.0,46.2,29.29,West,270,3.0,4.0,97,0.00,,,0.00,Weather View 32 v70,2013-05-16 10:07:00,
2013-05-16 06:12:00,48.0,47.2,29.29,WNW,292,0.0,4.0,97,0.00,,,0.00,Weather View 32 v70,2013-05-16 10:12:00,
2013-05-16 06:17:00,47.0,46.2,29.29,WNW,292,0.0,4.0,97,0.00,,,0.00,Weather View 32 v70,2013-05-16 10:17:00,
2013-05-16 06:22:00,48.0,47.2,29.29,WNW,292,0.0,4.0,97,0.00,,,0.00,Weather View 32 v70,2013-05-16 10:22:00,
2013-05-16 06:27:00,48.0,46.4,29.29,West,270,1.0,4.0,94,0.00,,,0.00,Weather View 32 v70,2013-05-16 10:27:00,
2013-05-16 06:32:00,49.0,46.5,29.29,West,270,0.0,4.0,91,0.00,,,0.00,Weather View 32 v70,2013-05-16 10:32:00,
2013-05-16 06:37:00,50.0,47.5,29.29,West,270,0.0,4.0,91,0.00,,,0.00,Weather View 32 v70,2013-05-16 10:37:00,
2013-05-16 06:42:00,50.0,46.9,29.28,West,270,1.0,4.0,89,0.00,,,0.00,Weather View 32 v70,2013-05-16 10:42:00,
2013-05-16 06:47:00,51.0,47.3,29.28,West,270,2.0,4.0,87,0.00,,,0.00,Weather View 32 v70,2013-05-16 10:47:00,
2013-05-16 06:52:00,52.0,47.0,29.28,West,270,2.0,5.0,83,0.00,,,0.00,Weather View 32 v70,2013-05-16 10:52:00,
2013-05-16 06:57:00,53.0,47.6,29.28,West,270,2.0,6.0,82,0.00,,,0.00,Weather View 32 v70,2013-05-16 10:57:00,
2013-05-16 07:02:00,54.0,48.9,29.28,West,270,3.0,6.0,83,0.00,,,0.00,Weather View 32 v70,2013-05-16 11:02:00,
2013-05-16 07:07:00,54.0,47.6,29.28,West,270,3.0,7.0,79,0.00,,,0.00,Weather View 32 v70,2013-05-16 11:07:00,
2013-05-16 07:12:00,54.0,46.9,29.27,West,270,4.0,7.0,77,0.00,,,0.00,Weather View 32 v70,2013-05-16 11:12:00,
2013-05-16 07:17:00,55.0,46.5,29.27,WSW,247,6.0,7.0,73,0.00,,,0.00,Weather View 32 v70,2013-05-16 11:17:00,
2013-05-16 07:22:00,56.0,47.1,29.27,WSW,247,6.0,7.0,72,0.00,,,0.00,Weather View 32 v70,2013-05-16 11:22:00,
2013-05-16 07:27:00,56.0,47.1,29.27,West,270,5.0,7.0,72,0.00,,,0.00,Weather View 32 v70,2013-05-16 11:27:00,
2013-05-16 07:32:00,57.0,48.0,29.27,West,270,5.0,7.0,72,0.00,,,0.00,Weather View 32 v70,2013-05-16 11:32:00,
2013-05-16 07:37:00,57.0,47.7,29.27,WSW,247,7.0,7.0,71,0.00,,,0.00,Weather View 32 v70,2013-05-16 11:37:00,
2013-05-16 07:42:00,57.0,46.5,29.28,West,270,4.0,7.0,68,0.00,,,0.00,Weather View 32 v70,2013-05-16 11:42:00,
2013-05-16 07:47:00,58.0,47.9,29.28,West,270,1.0,7.0,69,0.00,,,0.00,Weather View 32 v70,2013-05-16 11:47:00,
2013-05-16 07:52:00,58.0,47.5,29.28,West,270,3.0,7.0,68,0.00,,,0.00,Weather View 32 v70,2013-05-16 11:52:00,
2013-05-16 07:57:00,58.0,47.5,29.28,West,270,4.0,7.0,68,0.00,,,0.00,Weather View 32 v70,2013-05-16 11:57:00,
2013-05-16 08:02:00,59.0,48.0,29.28,West,270,4.0,7.0,67,0.00,,,0.00,Weather View 32 v70,2013-05-16 12:02:00,
2013-05-16 08:07:00,59.0,46.8,29.28,NW,315,4.0,7.0,64,0.00,,,0.00,Weather View 32 v70,2013-05-16 12:07:00,
2013-05-16 08:12:00,60.0,47.3,29.27,West,270,1.0,9.0,63,0.00,,,0.00,Weather View 32 v70,2013-05-16 12:12:00,
2013-05-16 08:17:00,60.0,46.5,29.27,WNW,292,2.0,9.0,61,0.00,,,0.00,Weather View 32 v70,2013-05-16 12:17:00,
2013-05-16 08:22:00,61.0,46.1,29.27,West,270,5.0,9.0,58,0.00,,,0.00,Weather View 32 v70,2013-05-16 12:22:00,
2013-05-16 08:27:00,62.0,46.1,29.27,West,270,4.0,9.0,56,0.00,,,0.00,Weather View 32 v70,2013-05-16 12:27:00,
2013-05-16 08:32:00,62.0,47.5,29.27,WNW,292,1.0,9.0,59,0.00,,,0.00,Weather View 32 v70,2013-05-16 12:32:00,
2013-05-16 08:37:00,63.0,46.1,29.27,West,270,2.0,9.0,54,0.00,,,0.00,Weather View 32 v70,2013-05-16 12:37:00,
2013-05-16 08:42:00,63.0,46.1,29.27,WSW,247,6.0,9.0,54,0.00,,,0.00,Weather View 32 v70,2013-05-16 12:42:00,
2013-05-16 08:47:00,63.0,44.5,29.27,NW,315,6.0,9.0,51,0.00,,,0.00,Weather View 32 v70,2013-05-16 12:47:00,
2013-05-16 08:52:00,63.0,44.5,29.27,WSW,247,5.0,9.0,51,0.00,,,0.00,Weather View 32 v70,2013-05-16 12:52:00,
2013-05-16 08:57:00,64.0,44.4,29.27,NW,315,7.0,12.0,49,0.00,,,0.00,Weather View 32 v70,2013-05-16 12:57:00,
2013-05-16 09:02:00,64.0,44.4,29.27,West,270,5.0,12.0,49,0.00,,,0.00,Weather View 32 v70,2013-05-16 13:02:00,
2013-05-16 09:07:00,64.0,45.5,29.27,West,270,6.0,12.0,51,0.00,,,0.00,Weather View 32 v70,2013-05-16 13:07:00,
2013-05-16 09:12:00,65.0,45.9,29.27,East,90,0.0,12.0,50,0.00,,,0.00,Weather View 32 v70,2013-05-16 13:12:00,
2013-05-16 09:17:00,65.0,44.8,29.27,West,270,5.0,12.0,48,0.00,,,0.00,Weather View 32 v70,2013-05-16 13:17:00,
2013-05-16 09:22:00,66.0,45.1,29.27,West,270,3.0,12.0,47,0.00,,,0.00,Weather View 32 v70,2013-05-16 13:22:00,
2013-05-16 09:27:00,66.0,45.1,29.27,WNW,292,3.0,12.0,47,0.00,,,0.00,Weather View 32 v70,2013-05-16 13:27:00,
2013-05-16 09:32:00,67.0,44.3,29.26,WSW,247,3.0,12.0,44,0.00,,,0.00,Weather View 32 v70,2013-05-16 13:32:00,
2013-05-16 09:37:00,67.0,43.7,29.26,NW,315,5.0,12.0,43,0.00,,,0.00,Weather View 32 v70,2013-05-16 13:37:00,
2013-05-16 09:42:00,67.0,45.5,29.27,West,270,3.0,12.0,46,0.00,,,0.00,Weather View 32 v70,2013-05-16 13:42:00,
2013-05-16 09:47:00,67.0,42.5,29.27,WSW,247,7.0,12.0,41,0.00,,,0.00,Weather View 32 v70,2013-05-16 13:47:00,
2013-05-16 09:52:00,68.0,45.2,29.26,NW,315,3.0,12.0,44,0.00,,,0.00,Weather View 32 v70,2013-05-16 13:52:00,
2013-05-16 09:57:00,68.0,42.7,29.26,NW,315,3.0,12.0,40,0.00,,,0.00,Weather View 32 v70,2013-05-16 13:57:00,
2013-05-16 10:02:00,69.0,42.3,29.26,NW,315,5.0,12.0,38,0.00,,,0.00,Weather View 32 v70,2013-05-16 14:02:00,
2013-05-16 10:07:00,69.0,43.6,29.26,SW,225,7.0,12.0,40,0.00,,,0.00,Weather View 32 v70,2013-05-16 14:07:00,
2013-05-16 10:12:00,69.0,39.4,29.25,WSW,247,6.0,15.0,34,0.00,,,0.00,Weather View 32 v70,2013-05-16 14:12:00,
2013-05-16 10:17:00,69.0,39.4,29.25,NW,315,6.0,15.0,34,0.00,,,0.00,Weather View 32 v70,2013-05-16 14:17:00,
2013-05-16 10:22:00,70.0,39.5,29.25,West,270,6.0,15.0,33,0.00,,,0.00,Weather View 32 v70,2013-05-16 14:22:00,
2013-05-16 10:27:00,70.0,39.5,29.25,WSW,247,12.0,15.0,33,0.00,,,0.00,Weather View 32 v70,2013-05-16 14:27:00,
2013-05-16 10:32:00,71.0,38.8,29.25,NW,315,4.0,15.0,31,0.00,,,0.00,Weather View 32 v70,2013-05-16 14:32:00,
2013-05-16 10:37:00,70.0,37.1,29.25,West,270,9.0,15.0,30,0.00,,,0.00,Weather View 32 v70,2013-05-16 14:37:00,
2013-05-16 10:42:00,71.0,39.6,29.25,NE,45,4.0,15.0,32,0.00,,,0.00,Weather View 32 v70,2013-05-16 14:42:00,
2013-05-16 10:47:00,71.0,37.1,29.25,West,270,11.0,15.0,29,0.00,,,0.00,Weather View 32 v70,2013-05-16 14:47:00,
2013-05-16 10:52:00,71.0,37.1,29.25,WNW,292,10.0,15.0,29,0.00,,,0.00,Weather View 32 v70,2013-05-16 14:52:00,
2013-05-16 10:57:00,71.0,37.1,29.25,West,270,6.0,15.0,29,0.00,,,0.00,Weather View 32 v70,2013-05-16 14:57:00,
2013-05-16 11:02:00,72.0,37.0,29.25,SW,225,13.0,15.0,28,0.00,,,0.00,Weather View 32 v70,2013-05-16 15:02:00,
2013-05-16 11:07:00,72.0,36.1,29.25,NW,315,11.0,16.0,27,0.00,,,0.00,Weather View 32 v70,2013-05-16 15:07:00,
2013-05-16 11:12:00,72.0,38.8,29.24,West,270,5.0,16.0,30,0.00,,,0.00,Weather View 32 v70,2013-05-16 15:12:00,
2013-05-16 11:17:00,72.0,37.9,29.24,NW,315,6.0,16.0,29,0.00,,,0.00,Weather View 32 v70,2013-05-16 15:17:00,
2013-05-16 11:22:00,72.0,35.2,29.24,West,270,9.0,16.0,26,0.00,,,0.00,Weather View 32 v70,2013-05-16 15:22:00,
2013-05-16 11:27:00,72.0,36.1,29.24,NW,315,2.0,16.0,27,0.00,,,0.00,Weather View 32 v70,2013-05-16 15:27:00,
2013-05-16 11:32:00,71.0,35.3,29.24,West,270,6.0,16.0,27,0.00,,,0.00,Weather View 32 v70,2013-05-16 15:32:00,
2013-05-16 11:37:00,71.0,35.3,29.24,NW,315,1.0,16.0,27,0.00,,,0.00,Weather View 32 v70,2013-05-16 15:37:00,
2013-05-16 11:42:00,71.0,35.3,29.25,West,270,6.0,17.0,27,0.00,,,0.00,Weather View 32 v70,2013-05-16 15:42:00,
2013-05-16 11:47:00,71.0,34.3,29.25,West,270,7.0,17.0,26,0.00,,,0.00,Weather View 32 v70,2013-05-16 15:47:00,
2013-05-16 11:52:00,71.0,34.3,29.25,West,270,4.0,17.0,26,0.00,,,0.00,Weather View 32 v70,2013-05-16 15:52:00,
2013-05-16 11:57:00,71.0,36.2,29.25,West,270,8.0,17.0,28,0.00,,,0.00,Weather View 32 v70,2013-05-16 15:57:00,
2013-05-16 12:02:00,72.0,34.2,29.24,NW,315,5.0,17.0,25,0.00,,,0.00,Weather View 32 v70,2013-05-16 16:02:00,
2013-05-16 12:07:00,73.0,36.0,29.24,West,270,7.0,17.0,26,0.00,,,0.00,Weather View 32 v70,2013-05-16 16:07:00,
2013-05-16 12:12:00,74.0,34.8,29.22,WSW,247,8.0,17.0,24,0.00,,,0.00,Weather View 32 v70,2013-05-16 16:12:00,
2013-05-16 12:17:00,74.0,34.8,29.22,WNW,292,8.0,17.0,24,0.00,,,0.00,Weather View 32 v70,2013-05-16 16:17:00,
2013-05-16 12:22:00,75.0,35.7,29.21,West,270,7.0,17.0,24,0.00,,,0.00,Weather View 32 v70,2013-05-16 16:22:00,
2013-05-16 12:27:00,75.0,35.7,29.21,West,270,6.0,17.0,24,0.00,,,0.00,Weather View 32 v70,2013-05-16 16:27:00,
2013-05-16 12:32:00,75.0,35.7,29.21,NW,315,10.0,17.0,24,0.00,,,0.00,Weather View 32 v70,2013-05-16 16:32:00,
2013-05-16 12:37:00,75.0,36.7,29.21,SW,225,7.0,17.0,25,0.00,,,0.00,Weather View 32 v70,2013-05-16 16:37:00,
2013-05-16 12:42:00,75.0,33.5,29.21,West,270,11.0,17.0,22,0.00,,,0.00,Weather View 32 v70,2013-05-16 16:42:00,
2013-05-16 12:47:00,76.0,34.3,29.21,NW,315,8.0,17.0,22,0.00,,,0.00,Weather View 32 v70,2013-05-16 16:47:00,
2013-05-16 12:52:00,76.0,34.3,29.21,West,270,6.0,17.0,22,0.00,,,0.00,Weather View 32 v70,2013-05-16 16:52:00,
2013-05-16 12:57:00,76.0,35.4,29.21,NW,315,3.0,17.0,23,0.00,,,0.00,Weather View 32 v70,2013-05-16 16:57:00,
2013-05-16 13:02:00,76.0,35.4,29.20,North,360,6.0,17.0,23,0.00,,,0.00,Weather View 32 v70,2013-05-16 17:02:00,
2013-05-16 13:07:00,76.0,35.4,29.20,West,270,7.0,17.0,23,0.00,,,0.00,Weather View 32 v70,2013-05-16 17:07:00,
2013-05-16 13:12:00,76.0,34.3,29.20,West,270,6.0,20.0,22,0.00,,,0.00,Weather View 32 v70,2013-05-16 17:12:00,
2013-05-16 13:17:00,76.0,35.4,29.20,WSW,247,7.0,20.0,23,0.00,,,0.00,Weather View 32 v70,2013-05-16 17:17:00,
2013-05-16 13:22:00,77.0,36.3,29.19,WSW,247,6.0,20.0,23,0.00,,,0.00,Weather View 32 v70,2013-05-16 17:22:00,
2013-05-16 13:27:00,78.0,37.1,29.19,West,270,4.0,20.0,23,0.00,,,0.00,Weather View 32 v70,2013-05-16 17:27:00,
2013-05-16 13:32:00,77.0,36.3,29.19,West,270,7.0,20.0,23,0.00,,,0.00,Weather View 32 v70,2013-05-16 17:32:00,
2013-05-16 13:37:00,78.0,37.1,29.19,NW,315,10.0,20.0,23,0.00,,,0.00,Weather View 32 v70,2013-05-16 17:37:00,
2013-05-16 13:42:00,78.0,36.0,29.18,West,270,7.0,20.0,22,0.00,,,0.00,Weather View 32 v70,2013-05-16 17:42:00,
2013-05-16 13:47:00,77.0,36.3,29.18,West,270,4.0,20.0,23,0.00,,,0.00,Weather View 32 v70,2013-05-16 17:47:00,
2013-05-16 13:52:00,78.0,37.1,29.19,West,270,6.0,20.0,23,0.00,,,0.00,Weather View 32 v70,2013-05-16 17:52:00,
2013-05-16 13:57:00,78.0,38.2,29.19,West,270,3.0,20.0,24,0.00,,,0.00,Weather View 32 v70,2013-05-16 17:57:00,
2013-05-16 14:02:00,77.0,36.3,29.19,West,270,10.0,20.0,23,0.00,,,0.00,Weather View 32 v70,2013-05-16 18:02:00,
2013-05-16 14:07:00,77.0,38.4,29.19,NW,315,7.0,20.0,25,0.00,,,0.00,Weather View 32 v70,2013-05-16 18:07:00,
2013-05-16 14:12:00,78.0,38.2,29.18,WSW,247,7.0,19.0,24,0.00,,,0.00,Weather View 32 v70,2013-05-16 18:12:00,
2013-05-16 14:17:00,78.0,38.2,29.18,West,270,9.0,19.0,24,0.00,,,0.00,Weather View 32 v70,2013-05-16 18:17:00,
2013-05-16 14:22:00,77.0,36.3,29.19,West,270,11.0,20.0,23,0.00,,,0.00,Weather View 32 v70,2013-05-16 18:22:00,
2013-05-16 14:27:00,77.0,36.3,29.19,West,270,7.0,20.0,23,0.00,,,0.00,Weather View 32 v70,2013-05-16 18:27:00,
2013-05-16 14:32:00,76.0,36.5,29.19,NW,315,8.0,20.0,24,0.01,,,0.01,Weather View 32 v70,2013-05-16 18:32:00,
2013-05-16 14:37:00,77.0,37.3,29.19,NW,315,6.0,20.0,24,0.01,,,0.01,Weather View 32 v70,2013-05-16 18:37:00,
2013-05-16 14:42:00,77.0,37.3,29.19,North,360,6.0,20.0,24,0.01,,,0.01,Weather View 32 v70,2013-05-16 18:42:00,
2013-05-16 14:47:00,77.0,37.3,29.19,West,270,9.0,20.0,24,0.01,,,0.01,Weather View 32 v70,2013-05-16 18:47:00,
2013-05-16 14:52:00,77.0,36.3,29.19,NW,315,1.0,20.0,23,0.01,,,0.01,Weather View 32 v70,2013-05-16 18:52:00,
2013-05-16 14:57:00,78.0,38.2,29.19,West,270,4.0,20.0,24,0.01,,,0.01,Weather View 32 v70,2013-05-16 18:57:00,
2013-05-16 15:02:00,78.0,36.0,29.18,NW,315,10.0,20.0,22,0.01,,,0.01,Weather View 32 v70,2013-05-16 19:02:00,
2013-05-16 15:07:00,77.0,36.3,29.18,NW,315,13.0,21.0,23,0.01,,,0.01,Weather View 32 v70,2013-05-16 19:07:00,
2013-05-16 15:12:00,77.0,36.3,29.19,West,270,8.0,21.0,23,0.01,,,0.01,Weather View 32 v70,2013-05-16 19:12:00,
2013-05-16 15:17:00,77.0,37.3,29.19,West,270,7.0,21.0,24,0.01,,,0.01,Weather View 32 v70,2013-05-16 19:17:00,
2013-05-16 15:22:00,77.0,37.3,29.19,West,270,6.0,21.0,24,0.01,,,0.01,Weather View 32 v70,2013-05-16 19:22:00,
2013-05-16 15:27:00,77.0,37.3,29.19,West,270,15.0,21.0,24,0.01,,,0.01,Weather View 32 v70,2013-05-16 19:27:00,
2013-05-16 15:32:00,77.0,37.3,29.19,West,270,13.0,21.0,24,0.00,,,0.01,Weather View 32 v70,2013-05-16 19:32:00,
2013-05-16 15:37:00,77.0,37.3,29.19,West,270,13.0,21.0,24,0.00,,,0.01,Weather View 32 v70,2013-05-16 19:37:00,
2013-05-16 15:42:00,76.0,36.5,29.19,WSW,247,13.0,21.0,24,0.00,,,0.01,Weather View 32 v70,2013-05-16 19:42:00,
2013-05-16 15:47:00,77.0,37.3,29.19,WSW,247,0.0,21.0,24,0.00,,,0.01,Weather View 32 v70,2013-05-16 19:47:00,
2013-05-16 15:52:00,77.0,35.1,29.19,West,270,9.0,21.0,22,0.00,,,0.01,Weather View 32 v70,2013-05-16 19:52:00,
2013-05-16 15:57:00,77.0,36.3,29.19,NW,315,3.0,21.0,23,0.00,,,0.01,Weather View 32 v70,2013-05-16 19:57:00,
2013-05-16 16:02:00,77.0,36.3,29.19,West,270,9.0,21.0,23,0.00,,,0.01,Weather View 32 v70,2013-05-16 20:02:00,
2013-05-16 16:07:00,77.0,36.3,29.19,NW,315,4.0,21.0,23,0.00,,,0.01,Weather View 32 v70,2013-05-16 20:07:00,
2013-05-16 16:12:00,76.0,35.4,29.20,West,270,10.0,21.0,23,0.00,,,0.01,Weather View 32 v70,2013-05-16 20:12:00,
2013-05-16 16:17:00,76.0,38.5,29.20,WSW,247,4.0,21.0,26,0.00,,,0.01,Weather View 32 v70,2013-05-16 20:17:00,
2013-05-16 16:22:00,77.0,36.3,29.19,NW,315,6.0,21.0,23,0.00,,,0.01,Weather View 32 v70,2013-05-16 20:22:00,
2013-05-16 16:27:00,77.0,36.3,29.19,WNW,292,7.0,24.0,23,0.00,,,0.01,Weather View 32 v70,2013-05-16 20:27:00,
2013-05-16 16:32:00,77.0,35.1,29.19,West,270,19.0,24.0,22,0.00,,,0.01,Weather View 32 v70,2013-05-16 20:32:00,
2013-05-16 16:37:00,76.0,34.3,29.19,West,270,10.0,24.0,22,0.00,,,0.01,Weather View 32 v70,2013-05-16 20:37:00,
2013-05-16 16:42:00,77.0,36.3,29.19,West,270,4.0,24.0,23,0.00,,,0.01,Weather View 32 v70,2013-05-16 20:42:00,
2013-05-16 16:47:00,76.0,35.4,29.19,NW,315,10.0,24.0,23,0.00,,,0.01,Weather View 32 v70,2013-05-16 20:47:00,
2013-05-16 16:52:00,77.0,36.3,29.19,West,270,6.0,24.0,23,0.00,,,0.01,Weather View 32 v70,2013-05-16 20:52:00,
2013-05-16 16:57:00,77.0,35.1,29.19,West,270,5.0,24.0,22,0.00,,,0.01,Weather View 32 v70,2013-05-16 20:57:00,
2013-05-16 17:02:00,77.0,36.3,29.19,West,270,6.0,24.0,23,0.00,,,0.01,Weather View 32 v70,2013-05-16 21:02:00,
2013-05-16 17:07:00,77.0,35.1,29.19,NW,315,8.0,24.0,22,0.00,,,0.01,Weather View 32 v70,2013-05-16 21:07:00,
2013-05-16 17:12:00,77.0,35.1,29.19,NW,315,7.0,24.0,22,0.00,,,0.01,Weather View 32 v70,2013-05-16 21:12:00,
2013-05-16 17:17:00,76.0,35.4,29.19,WSW,247,5.0,24.0,23,0.00,,,0.01,Weather View 32 v70,2013-05-16 21:17:00,
2013-05-16 17:22:00,76.0,35.4,29.19,West,270,7.0,24.0,23,0.00,,,0.01,Weather View 32 v70,2013-05-16 21:22:00,
2013-05-16 17:27:00,76.0,34.3,29.19,WNW,292,9.0,23.0,22,0.00,,,0.01,Weather View 32 v70,2013-05-16 21:27:00,
2013-05-16 17:32:00,77.0,35.1,29.19,ENE,67,2.0,23.0,22,0.00,,,0.01,Weather View 32 v70,2013-05-16 21:32:00,
2013-05-16 17:37:00,77.0,35.1,29.19,NW,315,3.0,23.0,22,0.00,,,0.01,Weather View 32 v70,2013-05-16 21:37:00,
2013-05-16 17:42:00,77.0,34.0,29.18,NW,315,9.0,23.0,21,0.00,,,0.01,Weather View 32 v70,2013-05-16 21:42:00,
2013-05-16 17:47:00,77.0,34.0,29.18,NW,315,7.0,23.0,21,0.00,,,0.01,Weather View 32 v70,2013-05-16 21:47:00,
2013-05-16 17:52:00,77.0,34.0,29.19,WSW,247,13.0,23.0,21,0.00,,,0.01,Weather View 32 v70,2013-05-16 21:52:00,
2013-05-16 17:57:00,76.0,34.3,29.19,NW,315,9.0,23.0,22,0.00,,,0.01,Weather View 32 v70,2013-05-16 21:57:00,
2013-05-16 18:02:00,77.0,34.0,29.19,West,270,8.0,23.0,21,0.00,,,0.01,Weather View 32 v70,2013-05-16 22:02:00,
2013-05-16 18:07:00,76.0,34.3,29.19,West,270,6.0,22.0,22,0.00,,,0.01,Weather View 32 v70,2013-05-16 22:07:00,
2013-05-16 18:12:00,76.0,34.3,29.20,NW,315,5.0,22.0,22,0.00,,,0.01,Weather View 32 v70,2013-05-16 22:12:00,
2013-05-16 18:17:00,76.0,34.3,29.20,West,270,9.0,22.0,22,0.00,,,0.01,Weather View 32 v70,2013-05-16 22:17:00,
2013-05-16 18:22:00,76.0,31.9,29.20,WNW,292,10.0,22.0,20,0.00,,,0.01,Weather View 32 v70,2013-05-16 22:22:00,
2013-05-16 18:27:00,76.0,33.1,29.20,West,270,8.0,22.0,21,0.00,,,0.01,Weather View 32 v70,2013-05-16 22:27:00,
2013-05-16 18:32:00,76.0,34.3,29.20,West,270,7.0,22.0,22,0.00,,,0.01,Weather View 32 v70,2013-05-16 22:32:00,
2013-05-16 18:37:00,75.0,33.5,29.20,West,270,5.0,22.0,22,0.04,,,0.05,Weather View 32 v70,2013-05-16 22:37:00,
2013-05-16 18:42:00,75.0,32.3,29.20,NNW,337,7.0,22.0,21,0.04,,,0.05,Weather View 32 v70,2013-05-16 22:42:00,
2013-05-16 18:47:00,75.0,33.5,29.20,NW,315,6.0,22.0,22,0.04,,,0.05,Weather View 32 v70,2013-05-16 22:47:00,
2013-05-16 18:52:00,75.0,33.5,29.21,WNW,292,16.0,23.0,22,0.04,,,0.05,Weather View 32 v70,2013-05-16 22:52:00,
2013-05-16 18:57:00,74.0,32.6,29.21,NW,315,3.0,23.0,22,0.04,,,0.05,Weather View 32 v70,2013-05-16 22:57:00,
2013-05-16 19:02:00,74.0,33.8,29.21,West,270,10.0,23.0,23,0.04,,,0.05,Weather View 32 v70,2013-05-16 23:02:00,
2013-05-16 19:07:00,74.0,32.6,29.21,NW,315,12.0,23.0,22,0.04,,,0.05,Weather View 32 v70,2013-05-16 23:07:00,
2013-05-16 19:12:00,74.0,31.5,29.21,West,270,8.0,23.0,21,0.04,,,0.05,Weather View 32 v70,2013-05-16 23:12:00,
2013-05-16 19:17:00,74.0,33.8,29.21,NW,315,3.0,23.0,23,0.04,,,0.05,Weather View 32 v70,2013-05-16 23:17:00,
2013-05-16 19:22:00,73.0,32.9,29.23,West,270,9.0,23.0,23,0.04,,,0.05,Weather View 32 v70,2013-05-16 23:22:00,
2013-05-16 19:27:00,73.0,32.9,29.23,NW,315,7.0,23.0,23,0.04,,,0.05,Weather View 32 v70,2013-05-16 23:27:00,
2013-05-16 19:32:00,73.0,32.9,29.23,West,270,4.0,23.0,23,0.04,,,0.05,Weather View 32 v70,2013-05-16 23:32:00,
2013-05-16 19:37:00,73.0,32.9,29.23,West,270,6.0,23.0,23,0.00,,,0.05,Weather View 32 v70,2013-05-16 23:37:00,
2013-05-16 19:42:00,73.0,32.9,29.23,West,270,6.0,23.0,23,0.00,,,0.05,Weather View 32 v70,2013-05-16 23:42:00,
2013-05-16 19:47:00,73.0,32.9,29.23,West,270,6.0,23.0,23,0.00,,,0.05,Weather View 32 v70,2013-05-16 23:47:00,
2013-05-16 19:52:00,73.0,34.0,29.24,West,270,6.0,22.0,24,0.00,,,0.05,Weather View 32 v70,2013-05-16 23:52:00,
2013-05-16 19:57:00,72.0,34.2,29.24,WNW,292,6.0,22.0,25,0.00,,,0.05,Weather View 32 v70,2013-05-16 23:57:00,
2013-05-16 20:02:00,72.0,34.2,29.25,West,270,3.0,22.0,25,0.00,,,0.05,Weather View 32 v70,2013-05-17 00:02:00,
2013-05-16 20:07:00,71.0,33.3,29.25,West,270,7.0,22.0,25,0.00,,,0.05,Weather View 32 v70,2013-05-17 00:07:00,
2013-05-16 20:12:00,71.0,33.3,29.26,NW,315,4.0,22.0,25,0.00,,,0.05,Weather View 32 v70,2013-05-17 00:12:00,
2013-05-16 20:17:00,71.0,33.3,29.26,NW,315,5.0,22.0,25,0.00,,,0.05,Weather View 32 v70,2013-05-17 00:17:00,
2013-05-16 20:22:00,71.0,34.3,29.26,West,270,5.0,22.0,26,0.00,,,0.05,Weather View 32 v70,2013-05-17 00:22:00,
2013-05-16 20:27:00,70.0,33.5,29.26,WNW,292,6.0,22.0,26,0.00,,,0.05,Weather View 32 v70,2013-05-17 00:27:00,
2013-05-16 20:32:00,70.0,32.5,29.27,West,270,3.0,22.0,25,0.00,,,0.05,Weather View 32 v70,2013-05-17 00:32:00,
2013-05-16 20:37:00,70.0,32.5,29.27,West,270,5.0,15.0,25,0.00,,,0.05,Weather View 32 v70,2013-05-17 00:37:00,
2013-05-16 20:42:00,70.0,32.5,29.27,NW,315,3.0,15.0,25,0.00,,,0.05,Weather View 32 v70,2013-05-17 00:42:00,
2013-05-16 20:47:00,70.0,32.5,29.27,West,270,6.0,13.0,25,0.00,,,0.05,Weather View 32 v70,2013-05-17 00:47:00,
2013-05-16 20:52:00,70.0,32.5,29.28,WNW,292,7.0,12.0,25,0.00,,,0.05,Weather View 32 v70,2013-05-17 00:52:00,
2013-05-16 20:57:00,70.0,32.5,29.28,West,270,4.0,13.0,25,0.00,,,0.05,Weather View 32 v70,2013-05-17 00:57:00,
2013-05-16 21:02:00,70.0,32.5,29.28,West,270,9.0,14.0,25,0.00,,,0.05,Weather View 32 v70,2013-05-17 01:02:00,
2013-05-16 21:07:00,70.0,32.5,29.28,West,270,7.0,14.0,25,0.00,,,0.05,Weather View 32 v70,2013-05-17 01:07:00,
2013-05-16 21:12:00,70.0,32.5,29.29,West,270,6.0,14.0,25,0.00,,,0.05,Weather View 32 v70,2013-05-17 01:12:00,
2013-05-16 21:17:00,69.0,31.6,29.29,WNW,292,6.0,14.0,25,0.00,,,0.05,Weather View 32 v70,2013-05-17 01:17:00,
2013-05-16 21:22:00,70.0,31.5,29.29,West,270,6.0,14.0,24,0.00,,,0.05,Weather View 32 v70,2013-05-17 01:22:00,
2013-05-16 21:27:00,69.0,30.6,29.29,West,270,7.0,14.0,24,0.00,,,0.05,Weather View 32 v70,2013-05-17 01:27:00,
2013-05-16 21:32:00,70.0,31.5,29.30,West,270,4.0,14.0,24,0.00,,,0.05,Weather View 32 v70,2013-05-17 01:32:00,
2013-05-16 21:37:00,69.0,30.6,29.30,West,270,6.0,14.0,24,0.00,,,0.05,Weather View 32 v70,2013-05-17 01:37:00,
2013-05-16 21:42:00,69.0,30.6,29.31,NW,315,2.0,14.0,24,0.00,,,0.05,Weather View 32 v70,2013-05-17 01:42:00,
2013-05-16 21:47:00,69.0,31.6,29.31,NW,315,2.0,14.0,25,0.00,,,0.05,Weather View 32 v70,2013-05-17 01:47:00,
2013-05-16 21:52:00,69.0,31.6,29.31,SW,225,0.0,14.0,25,0.00,,,0.05,Weather View 32 v70,2013-05-17 01:52:00,
2013-05-16 21:57:00,68.0,30.8,29.31,NNW,337,0.0,14.0,25,0.00,,,0.05,Weather View 32 v70,2013-05-17 01:57:00,
2013-05-16 22:02:00,67.0,29.9,29.33,East,90,0.0,14.0,25,0.00,,,0.05,Weather View 32 v70,2013-05-17 02:02:00,
2013-05-16 22:07:00,66.0,30.1,29.33,East,90,1.0,14.0,26,0.00,,,0.05,Weather View 32 v70,2013-05-17 02:07:00,
2013-05-16 22:12:00,66.0,31.0,29.34,SE,135,0.0,14.0,27,0.00,,,0.05,Weather View 32 v70,2013-05-17 02:12:00,
2013-05-16 22:17:00,65.0,31.0,29.34,SE,135,0.0,14.0,28,0.00,,,0.05,Weather View 32 v70,2013-05-17 02:17:00,
2013-05-16 22:22:00,65.0,32.7,29.35,SE,135,1.0,12.0,30,0.00,,,0.05,Weather View 32 v70,2013-05-17 02:22:00,
2013-05-16 22:27:00,64.0,34.3,29.35,NE,45,1.0,12.0,33,0.00,,,0.05,Weather View 32 v70,2013-05-17 02:27:00,
2013-05-16 22:32:00,63.0,36.9,29.37,North,360,0.0,12.0,38,0.00,,,0.05,Weather View 32 v70,2013-05-17 02:32:00,
2013-05-16 22:37:00,63.0,38.9,29.37,SE,135,2.0,12.0,41,0.00,,,0.05,Weather View 32 v70,2013-05-17 02:37:00,
2013-05-16 22:42:00,63.0,40.1,29.37,ESE,112,1.0,12.0,43,0.00,,,0.05,Weather View 32 v70,2013-05-17 02:42:00,
2013-05-16 22:47:00,62.0,40.4,29.37,SE,135,0.0,12.0,45,0.00,,,0.05,Weather View 32 v70,2013-05-17 02:47:00,
2013-05-16 22:52:00,62.0,40.9,29.39,NE,45,2.0,7.0,46,0.00,,,0.05,Weather View 32 v70,2013-05-17 02:52:00,
2013-05-16 22:57:00,61.0,41.1,29.39,NW,315,2.0,7.0,48,0.00,,,0.05,Weather View 32 v70,2013-05-17 02:57:00,
2013-05-16 23:02:00,61.0,42.2,29.39,SE,135,0.0,7.0,50,0.00,,,0.05,Weather View 32 v70,2013-05-17 03:02:00,
2013-05-16 23:07:00,60.0,41.8,29.39,East,90,0.0,7.0,51,0.00,,,0.05,Weather View 32 v70,2013-05-17 03:07:00,
2013-05-16 23:12:00,60.0,41.8,29.40,SSE,157,3.0,7.0,51,0.00,,,0.05,Weather View 32 v70,2013-05-17 03:12:00,
2013-05-16 23:17:00,59.0,41.4,29.40,East,90,0.0,7.0,52,0.00,,,0.05,Weather View 32 v70,2013-05-17 03:17:00,
2013-05-16 23:22:00,59.0,41.9,29.42,East,90,1.0,7.0,53,0.00,,,0.05,Weather View 32 v70,2013-05-17 03:22:00,
2013-05-16 23:27:00,58.0,41.4,29.42,WNW,292,0.0,7.0,54,0.00,,,0.05,Weather View 32 v70,2013-05-17 03:27:00,
2013-05-16 23:32:00,58.0,41.9,29.43,East,90,1.0,7.0,55,0.00,,,0.05,Weather View 32 v70,2013-05-17 03:32:00,
2013-05-16 23:37:00,58.0,42.4,29.43,NE,45,0.0,7.0,56,0.00,,,0.05,Weather View 32 v70,2013-05-17 03:37:00,
2013-05-16 23:42:00,58.0,42.4,29.43,NW,315,0.0,7.0,56,0.00,,,0.05,Weather View 32 v70,2013-05-17 03:42:00,
2013-05-16 23:47:00,57.0,41.9,29.43,ENE,67,1.0,7.0,57,0.00,,,0.05,Weather View 32 v70,2013-05-17 03:47:00,
2013-05-16 23:52:00,57.0,42.3,29.43,NE,45,2.0,7.0,58,0.00,,,0.05,Weather View 32 v70,2013-05-17 03:52:00,
2013-05-16 23:57:00,56.0,41.4,29.43,SE,135,1.0,7.0,58,0.00,,,0.05,Weather View 32 v70,2013-05-17 03:57:00,